Home > Weather > Fürstenfeldbruck > Past weeks

Flag for Germany Weather for the Past 2 Weeks in Fürstenfeldbruck, Bavaria, Germany

Now
55 °F

Refreshingly cool.


Feels Like: 53 °F
Forecast: 40 / 53 °F
Wind: 9 mph from Northeast

Location: Lechfeld

Current Time: Apr 30, 2016 at 9:42:43 PM

Latest Report: Apr 30, 2016 at 8:20 PM


Visibility: 6 mi

Pressure: 29.86 "Hg (28.06 "Hg at 520m altitude)

Humidity: 41%

Dew Point: 32 °F

Location of FürstenfeldbruckLocation

Historic Weather in Fürstenfeldbruck — Graph

°F

Fürstenfeldbruck Temperature Yesterday

Maximum temperature yesterday: 57 °F (at 3:20 PM)
Minimum temperature yesterday: 28 °F (at 6:20 AM)
Average temperature yesterday: 45 °F

High & Low Weather Summary for the Past Weeks

 TemperatureHumidityPressure
High64 °F (Apr 22, 12:20 PM)100% (Apr 16, 3:20 AM)30.36 "Hg (Apr 16, 3:20 AM)
Low28 °F (Apr 28, 4:20 AM)32% (Apr 30, 4:20 PM)29.59 "Hg (Apr 26, 8:57 AM)
Average44 °F73%29.95 "Hg
* Reported Apr 15 8:20 PM — Apr 30 8:20 PM, Fürstenfeldbruck, Weather by CustomWeather, © 2016

Note: Actual official high and low records may vary slightly from our data, if they occured in-between our weather recording intervals... More about our weather records

Advertising

Fürstenfeldbruck Weather History for the Previous 24 Hours

Scroll right to see more
 ConditionsComfort  
Time TempWeatherWind HumidityBarometerVisibility
8:20 PM
Sat, Apr 30
55 °FRefreshingly cool.9 mph41%29.86 "Hg6 mi
7:20 PM59 °FRefreshingly cool.10 mph36%29.86 "HgN/A
6:20 PM61 °FRefreshingly cool.15 mph34%29.86 "HgN/A
5:20 PM63 °FMild.16 mph32%29.86 "HgN/A
4:20 PM63 °FMild.15 mph32%29.89 "HgN/A
3:20 PM63 °FMild.13 mph34%29.92 "HgN/A
2:20 PM63 °FMild.10 mph39%29.92 "HgN/A
1:20 PM61 °FRefreshingly cool.8 mph42%29.95 "HgN/A
12:20 PM59 °FRefreshingly cool.5 mph42%29.98 "Hg6 mi
11:20 AM57 °FRefreshingly cool.3 mph44%30.01 "HgN/A
10:20 AM54 °FCool.2 mph51%30.01 "Hg5 mi
9:20 AM52 °FCool.1 mph54%30.01 "Hg4 mi
8:20 AM45 °FQuite cool.2 mph66%30.04 "Hg4 mi
7:20 AM39 °FChilly.3 mph75%30.01 "Hg3 mi
6:20 AM36 °FChilly.6 mph81%30.01 "Hg4 mi
5:20 AM36 °FChilly.5 mph81%30.01 "Hg4 mi
4:20 AM37 °FChilly.6 mph81%30.01 "Hg4 mi
3:20 AM34 °FChilly.3 mph87%30.01 "Hg3 mi
2:20 AM36 °FChilly.5 mph87%30.01 "Hg4 mi
1:20 AM36 °FChilly.3 mph81%30.01 "Hg4 mi
12:20 AM43 °FQuite cool.1 mph66%30.04 "Hg4 mi
11:20 PM
Fri, Apr 29
45 °FQuite cool.1 mph61%30.04 "Hg5 mi
10:20 PM43 °FQuite cool.7 mph61%30.04 "Hg6 mi
9:20 PM46 °FCool.5 mph57%30.04 "Hg6 mi
Weather by CustomWeather, © 2016

See weather overviewHow to use our weather pages